Other Surface Observations
Issued by NWS

Home | Current Version | Previous Version | Text Only | Print | Product List | Glossary On
Versions: 1 2 3 4 5 6 7 8 9 10 11 12 13 14 15 16 17 18 19 20 21 22 23 24 25 26 27 28 29 30 31 32 33 34 35 36 37 38 39 40 41 42 43 44 45 46 47 48 49 50
000
SXUS52 KTAE 190818
OSOTAE
OSOTAE
North Florida/South Alabama/Southwest Georgia Weather Roundup
National Weather Service Tallahassee Florida
400 AM EDT FRI SEP 19 2014

Note: "fair" indicates few or no clouds below 12,000 feet with no
significant weather and/or obstructions to visibility.

!FLZ017-115-028-034-025-190900
...North Florida...

CITY           SKY/WX    TMP DP  RH WIND       PRES   REMARKS
TALLAHASSEE    CLOUDY    72  68  87 CALM      29.93F
APALACHICOLA   CLOUDY    77  71  82 N3        29.91S
PERRY          MOCLDY    70  70 100 CALM      29.93S
CROSS CITY       N/A     73  71  93 CALM      29.92S
HOMERVILLE     FAIR      72  72 100 CALM      29.95F FOG
JACKSONVILLE   PTCLDY    71  71 100 CALM      29.93F
$$

!FLZ112-006-005-002-011-190900
...Florida Panhandle...

CITY           SKY/WX    TMP DP  RH WIND       PRES   REMARKS
MARIANNA       PTCLDY    71  68  90 CALM      29.93S
BONIFAY        FAIR      68  68 100 CALM      29.94F
PANAMA CITY NW FAIR      75  71  87 NE5       29.91F
TYNDALL AFB    CLOUDY    76  74  93 CALM      29.92F
TYND DRONE APT PTSUNNY   75  73  91 MISG      29.90F
DE FUNIAK SPR  FAIR      74  67  79 E5        29.93F
EGLIN AFB      MOCLDY    76  73  90 N1        29.91F
DESTIN         CLOUDY    80  74  81 CALM      29.91F
HURLBURT       CLOUDY    76  71  86 N1        29.90F
CRESTVIEW      CLOUDY    71  69  93 CALM      29.93F
PENSACOLA      CLOUDY    74  71  91 N7        29.90F
$$

!ALZ063-066-190900
...South Alabama...

CITY           SKY/WX    TMP DP  RH WIND       PRES   REMARKS
DOTHAN         MOCLDY    69  66  90 E5        29.98F
OZARK CAIRNS   PTCLDY    71  63  76 NE2       29.95R
FT RUCKER HELI MOCLDY    69  65  86 CALM      29.94S
RUCKER HELI 3  FAIR      68  65  90 N3        29.97F
RUCKER HELI 2  FAIR      71  64  78 N5        29.95S
FLORALA APT    MOCLDY    71  63  75 CALM      29.95F
ANDALUSIA      PTCLDY    72  65  78 CALM      29.95S
TROY           CLOUDY    66  65  96 CALM      29.97F
EUFALA         FAIR      67  65  93 CALM      29.96S FOG
MOBILE         CLOUDY    71  69  93 N5        29.94F
$$

!GAZ120>161-190900
...Southwest and South Central Georgia...

CITY           SKY/WX    TMP DP  RH WIND       PRES   REMARKS
THOMASVILLE    FAIR      70  70 100 CALM      29.95F
BAINBRIDGE     PTCLDY    73  72  94 NE7       29.94F
MOODY AFB      CLEAR     70  68  94 NE2       29.94F
VALDOSTA       CLEAR     69  67  93 CALM      29.94F
MOULTRIE       PTCLDY    72  70  94 NE5       29.96S
BLAKELY        PTCLDY    70  68  94 CALM        N/A
ALBANY         MOCLDY    71  68  90 NE3       29.98F
TIFTON         FAIR      71  69  94 CALM      29.96F
FITZGERALD     FAIR      72  69  91 NE3       29.99S
CORDELE        FAIR      70  68  92 CALM      29.99S
AMERICUS       FAIR      68  68 100 CALM      30.00S FOG
$$

!GMZ750-755-770-775-190900
...Coastal and Buoy Obs...

STATION/POSITION TIME  TEMP    WIND        PRES    VSBY  WAVE
                       AIR SEA DIR/SP/G                  HT/PER
                 (UTC) (F)     (DEG/KT/KT) (MB)    (MI)  (FT/S)
KEATON BEACH     0800   73      30/  4/  4 1013.3F
CEDAR KEY        0800   80     130/  7/  8 1013.6F
C TOWER          0800   82      30/  4/  5 1012.6F
APALACHICOLA BUO 0800   83 85   60/  6/  6 1012.5F         1
PANAMA CITY BUOY 0746   83 85   80/  6/  8 1012.2F         1
MOBILE BUOY      0654   76 85  160/ 12/ 16 1013.8          1/ 3
ORANGE BCH AL BU 0800   83 85   90/  6/  8 1012.4F         1
$$



USA.gov is the U.S. government's official web portal to all federal, state and local government web resources and services.